This is the latest recevied weather packets stored in our database for station/object SP9SOY-2. If no packets are shown the sender has not sent any weather packets the latest 10 day(s).
| Time | Temp. | Humidity | Pressure | Rain* | Wind** | Luminosity | Snow |
|---|---|---|---|---|---|---|---|
| 1777543034 | 10° C | 19% | - | - | - | 246 W/m² | - |
| 1777541237 | 10° C | 19% | - | - | - | 218 W/m² | - |
| 1777539431 | 9.44° C | 19% | - | - | - | 190 W/m² | - |
| 1777535836 | 8.89° C | 19% | - | - | - | 478 W/m² | - |
| 1777534031 | 7.78° C | 19% | - | - | - | 405 W/m² | - |
| 1777532235 | 7.22° C | 20% | - | - | - | 332 W/m² | - |
| 1777530435 | 6.67° C | 20% | - | - | - | 218 W/m² | - |
| 1777528631 | 5.56° C | 21% | - | - | - | 104 W/m² | - |
| 1777526833 | 5.56° C | 23% | - | - | - | 52 W/m² | - |
| 1777499832 | 3.33° C | 21% | - | - | - | 0 W/m² | - |
| 1777498036 | 3.33° C | 21% | - | - | - | 0 W/m² | - |
| 1777496234 | 3.89° C | 21% | - | - | - | 0 W/m² | - |
| 1777494431 | 3.89° C | 21% | - | - | - | 0 W/m² | - |
| 1777492629 | 4.44° C | 21% | - | - | - | 0 W/m² | - |
| 1777490831 | 5° C | 21% | - | - | - | 0 W/m² | - |
| 1777489035 | 5° C | 21% | - | - | - | 0 W/m² | - |
| 1777487234 | 5° C | 21% | - | - | - | 8 W/m² | - |
| 1777485432 | 5.56° C | 20% | - | - | - | 16 W/m² | - |
| 1777483636 | 6.67° C | 20% | - | - | - | 33 W/m² | - |
| 1777481835 | 7.22° C | 20% | - | - | - | 50 W/m² | - |
| 1777480033 | 8.33° C | 19% | - | - | - | 48 W/m² | - |
| 1777478233 | 8.89° C | 19% | - | - | - | 46 W/m² | - |
| 1777476436 | 8.33° C | 19% | - | - | - | 60 W/m² | - |
| 1777472836 | 8.89° C | 19% | - | - | - | 595 W/m² | - |
| 1777469233 | 8.89° C | 19% | - | - | - | 648 W/m² | - |
* Rain since midnight (hover to see other rain measurements)
** Current wind speed in m/s (hover to see current wind gust speed)